[[[{"header":{"parameterUnit":"kt","parameterCategory":2,"dx":1,"dy":1,"la1":30.253999710083008,"la2":30.299108505249023,"lo1":-89.0895004272461,"lo2":-89.04439544677734,"nx":28,"ny":28,"refTime":"2022-10-10T21:00:00:Z","depth":"0","parameterNumber":2,"parameterNumberName":"U-component_of_CURRENTS"},"data":[0.5785,0.5836,0.5799,0.5691,0.5643,0.5463,0.5381,0.5204,0.5151,0.4847,0.4658,0.4637,0.4396,0.3886,0.3344,0.3234,0.3006,0.2785,0.299,0.3535,0.3638,0.3735,0.3448,0.2766,0.2765,0.1853,0.1847,0.1841,0.5715,0.5752,0.58,0.5808,0.5764,0.5788,0.5779,0.5659,0.5577,0.5636,0.5648,0.5418,0.5141,0.4996,0.4449,0.414,0.3962,0.4012,0.3671,0.3653,0.4478,0.4191,0.3655,0.3655,0.3656,0.3656,0.3656,0.3657,0.5644,0.5688,0.5778,0.5811,0.5868,0.5842,0.5802,0.5872,0.5911,0.5921,0.6155,0.6145,0.6007,0.5961,0.5889,0.5356,0.5566,0.5079,0.5139,0.5028,0.4649,0.5436,0.5361,0.5367,0.5372,0.5376,0.538,0,0.5594,0.5618,0.5711,0.5772,0.5841,0.5886,0.5969,0.6017,0.6143,0.6243,0.6365,0.6461,0.6614,0.6436,0.6489,0.6445,0.6121,0.6363,0.6188,0.5278,0.4925,0.4732,0.5728,0.5845,0.5854,0.586,0.5865,0.5868,0.5545,0.5591,0.5698,0.5751,0.5788,0.5886,0.5948,0.6055,0.6129,0.6348,0.6411,0.6664,0.6746,0.698,0.6883,0.6962,0.6808,0.657,0.6313,0.5988,0.593,0.5739,0.5599,0.5962,0.595,0.594,0.5932,0,0.5533,0.5579,0.5665,0.5771,0.5802,0.5871,0.5971,0.6061,0.6179,0.6313,0.6374,0.6563,0.6759,0.6893,0.7136,0.7021,0.6877,0.7109,0.6605,0.6492,0.5994,0.5965,0.5889,0.5729,0.7014,0.7009,0.7006,0,0.5507,0.5574,0.5647,0.5686,0.5789,0.5836,0.595,0.6009,0.6135,0.6227,0.6328,0.6435,0.6588,0.6751,0.6801,0.6866,0.7068,0.6786,0.6741,0.6338,0.6272,0.6063,0.601,0.7106,0.7104,0.7101,0.7099,0,0.5436,0.554,0.5618,0.564,0.5719,0.5772,0.5814,0.5912,0.5968,0.6126,0.6197,0.6373,0.6463,0.6606,0.6657,0.6561,0.6935,0.6803,0.6659,0.6639,0.6307,0.624,0.6265,0.7096,0.7095,0.7094,0.7093,0,0.5377,0.5437,0.5537,0.5611,0.5635,0.568,0.5785,0.583,0.5936,0.5954,0.606,0.6068,0.6252,0.6135,0.6409,0.6256,0.6331,0.6369,0.638,0.6118,0.5905,0.5784,0.5936,0.5681,0.6391,0.6385,0.638,0,0.5292,0.539,0.5386,0.5484,0.5531,0.5513,0.5576,0.5619,0.5633,0.5712,0.5754,0.5832,0.5749,0.5777,0.5892,0.5948,0.6102,0.589,0.6086,0.6095,0.5852,0.6073,0.5629,0.5869,0.6307,0.6314,0.632,0,0.5206,0.5237,0.5255,0.5281,0.5299,0.5332,0.5391,0.5443,0.5497,0.548,0.5581,0.5639,0.5633,0.5646,0.5601,0.571,0.5972,0.5617,0.562,0.5768,0.6279,0.6002,0.6025,0.5909,0.5918,0.5926,0.6262,0,0.5107,0.5139,0.5178,0.5202,0.523,0.5266,0.5244,0.5261,0.5214,0.5202,0.5297,0.5283,0.5327,0.5314,0.5265,0.5471,0.5423,0.5344,0.5282,0.5438,0.555,0.5597,0.5005,0.5002,0.4999,0.4997,0,0,0.5011,0.5036,0.5012,0.5058,0.5069,0.5005,0.5057,0.5048,0.5011,0.5035,0.4956,0.5018,0.5002,0.5122,0.5146,0.5103,0.5153,0.5072,0.5316,0.5351,0.5384,0.5503,0.555,0.4993,0.4992,0.4991,0.499,0,0.496,0.4941,0.4989,0.4992,0.4986,0.496,0.4973,0.4932,0.4914,0.4931,0.4876,0.4925,0.489,0.4925,0.4929,0.5051,0.5046,0.5004,0.5145,0.5288,0.5326,0.536,0.5484,0.5529,0.4984,0.4984,0.4985,0,0.4871,0.4856,0.4864,0.4863,0.4849,0.4877,0.479,0.4809,0.4824,0.4725,0.4742,0.4729,0.4708,0.4759,0.4778,0.4722,0.4945,0.4803,0.4815,0.4892,0.5039,0.5081,0.5118,0.4648,0.4647,0.4647,0,0,0.4839,0.486,0.4818,0.4845,0.4848,0.4795,0.4795,0.4756,0.473,0.472,0.4681,0.4653,0.4678,0.4671,0.4686,0.4728,0.4793,0.4767,0.4783,0.4797,0.4879,0.5029,0.5068,0.4644,0.4644,0.4644,0,0,0.4815,0.4775,0.4737,0.4763,0.4757,0.4708,0.4736,0.4688,0.4678,0.466,0.4596,0.459,0.4649,0.4606,0.4578,0.4658,0.4585,0.4591,0.4696,0.4715,0.473,0.483,0.4507,0,0,0,0,0,0.4741,0.4783,0.475,0.4745,0.4708,0.4726,0.4723,0.4665,0.461,0.4645,0.4596,0.4558,0.4571,0.4546,0.4549,0.4614,0.4614,0.462,0.4625,0.4771,0.4792,0.4809,0,0,0,0,0,0,0.4738,0.4733,0.4748,0.47,0.469,0.4723,0.4625,0.4611,0.4606,0.4596,0.4565,0.4557,0.4516,0.4542,0.4545,0.4608,0.4506,0.4616,0.4621,0.4625,0.4778,0.4795,0.4809,0,0,0,0,0,0.4737,0.4732,0.4686,0.4699,0.4691,0.4627,0.4622,0.461,0.4607,0.4558,0.4549,0.4565,0.4518,0.4518,0.4544,0.4608,0.4504,0.4505,0.4619,0.4623,0.4626,0.4786,0,0,0,0,0,0,0.4735,0.4724,0.4683,0.4679,0.4674,0.4625,0.4615,0.461,0.4569,0.456,0.4556,0.4548,0.4521,0.452,0.452,0.4611,0.4502,0.4503,0.4504,0.4622,0.4625,0.4627,0,0,0,0,0,0,0.4726,0.4721,0.4681,0.4653,0.4645,0.4624,0.4615,0.4639,0.4571,0.4569,0.4561,0.4553,0.4526,0.4522,0.4522,0.4561,0.45,0.4501,0.4502,0.4503,0.4624,0.4626,0,0,0,0,0,0,0.4723,0.4719,0.4654,0.4648,0.464,0.4589,0.4645,0.4614,0.4533,0.4573,0.4525,0.4522,0.453,0.4528,0.4523,0.4563,0.4562,0.45,0.4501,0.4502,0.4502,0,0,0,0,0,0,0,0.4721,0.476,0.4707,0.4643,0.4637,0.4639,0.4638,0.4637,0.4532,0.4529,0.4526,0.4523,0.4492,0.4494,0.4495,0.4565,0,0,0.45,0.45,0,0,0,0,0,0,0,0,0.4761,0.476,0.4707,0.4706,0.4705,0.4639,0.4638,0.4637,0.4531,0.4529,0.4526,0.4524,0.4493,0.4494,0.4495,0,0,0,0,0,0,0,0,0,0,0,0,0,0,0,0.4707,0.4706,0,0.4639,0.4638,0.4638,0.4531,0.4529,0.4527,0.4525,0.4493,0.4494,0.4495,0,0,0,0,0,0,0,0,0,0,0,0,0,0,0,0,0,0,0,0,0,0,0,0,0,0,0,0,0,0,0,0,0,0,0,0,0,0,0,0,0,0,0,0,0,0,0,0,0,0,0,0,0,0,0,0,0,0,0,0,0,0,0,0,0,0,0,0,0]}],[{"header":{"parameterUnit":"kt","parameterCategory":2,"dx":1,"dy":1,"la1":30.253999710083008,"la2":30.299108505249023,"lo1":-89.0895004272461,"lo2":-89.04439544677734,"nx":28,"ny":28,"refTime":"2022-10-10T21:00:00:Z","depth":"0","parameterNumber":3,"parameterNumberName":"V-component_of_CURRENTS"},"data":[0.1691,0.1808,0.1884,0.2149,0.2305,0.2538,0.2715,0.2992,0.3273,0.3583,0.3725,0.3823,0.3275,0.1788,0.0815,0.0607,0.0353,0.0283,0.0201,0.0508,0.0553,0.0595,0.052,0.0164,0.0164,-0.0255,-0.0259,-0.0262,0.1667,0.1756,0.1932,0.2131,0.2312,0.2417,0.2738,0.2907,0.3219,0.3563,0.3794,0.3683,0.3126,0.2537,0.1548,0.1089,0.0925,0.0848,0.0778,0.0732,0.1187,0.1129,0.0896,0.0897,0.0897,0.0897,0.0897,0.0897,0.1621,0.1708,0.1848,0.2029,0.2213,0.2439,0.2605,0.285,0.3142,0.3508,0.3631,0.3858,0.3401,0.2805,0.2421,0.1649,0.173,0.1366,0.1315,0.1298,0.1152,0.1602,0.1537,0.1538,0.1539,0.154,0.154,0,0.1555,0.1611,0.1751,0.1939,0.2101,0.2308,0.2532,0.2689,0.2963,0.3212,0.3507,0.3633,0.347,0.315,0.2672,0.2356,0.1872,0.194,0.177,0.1461,0.1348,0.1172,0.1693,0.1785,0.1788,0.179,0.1791,0.1792,0.1427,0.1533,0.1749,0.1854,0.1948,0.2158,0.2308,0.2513,0.2695,0.3068,0.3211,0.3348,0.3448,0.3174,0.2767,0.2401,0.2188,0.2013,0.1886,0.1659,0.1503,0.1445,0.1355,0.1818,0.1815,0.1812,0.181,0,0.136,0.1442,0.1639,0.184,0.1909,0.2062,0.2296,0.2474,0.2663,0.2936,0.3017,0.3185,0.318,0.2998,0.2824,0.2539,0.2208,0.2215,0.2118,0.2016,0.1605,0.1526,0.1506,0.1402,0.2006,0.2003,0.2001,0,0.128,0.1415,0.1553,0.1649,0.1864,0.1954,0.2196,0.2317,0.252,0.2723,0.2779,0.2959,0.2826,0.2792,0.255,0.2343,0.2452,0.2091,0.1999,0.1927,0.1903,0.1717,0.1626,0.2228,0.2228,0.2228,0.2228,0,0.1173,0.1341,0.15,0.1553,0.1735,0.1843,0.1943,0.2112,0.224,0.2453,0.2585,0.267,0.2738,0.2623,0.2407,0.2332,0.2346,0.2204,0.1977,0.1961,0.1883,0.1852,0.1867,0.2228,0.2228,0.2228,0.2228,0,0.1094,0.1199,0.1363,0.1564,0.1608,0.1683,0.1906,0.1987,0.2149,0.2207,0.2336,0.2335,0.2434,0.2268,0.2252,0.2198,0.2055,0.1962,0.1957,0.1824,0.1599,0.1552,0.1686,0.1497,0.1775,0.1773,0.1771,0,0.1012,0.1157,0.1191,0.1345,0.1438,0.1466,0.1564,0.1648,0.1711,0.1853,0.1881,0.199,0.1851,0.1903,0.1921,0.1831,0.1854,0.1789,0.1682,0.1681,0.1578,0.1733,0.1658,0.1652,0.1738,0.1742,0.1744,0,0.0937,0.1053,0.1066,0.1155,0.12,0.1254,0.1326,0.1436,0.1553,0.1539,0.1717,0.1713,0.1724,0.1728,0.1669,0.1699,0.1783,0.155,0.1548,0.1566,0.1823,0.1697,0.1705,0.1704,0.171,0.1714,0.1719,0,0.0915,0.0984,0.1014,0.1088,0.1122,0.117,0.1184,0.1222,0.1221,0.1249,0.1361,0.1324,0.139,0.135,0.1287,0.1431,0.134,0.1263,0.1217,0.1339,0.1308,0.1329,0.1035,0.1032,0.1029,0.1027,0,0,0.0839,0.0924,0.0926,0.0976,0.1016,0.0978,0.1043,0.1047,0.1046,0.1105,0.1027,0.1098,0.104,0.1165,0.1182,0.1112,0.1085,0.112,0.1248,0.1273,0.1295,0.1277,0.13,0.1022,0.1021,0.102,0.102,0,0.0838,0.0863,0.0915,0.0934,0.0952,0.0957,0.0965,0.0968,0.0978,0.1001,0.0963,0.0995,0.0942,0.0978,0.0976,0.1064,0.0993,0.1007,0.1185,0.1221,0.125,0.1275,0.1262,0.1284,0.1013,0.1014,0.1014,0,0.0799,0.0827,0.085,0.0891,0.0894,0.093,0.0884,0.0897,0.0935,0.085,0.0884,0.0853,0.0816,0.0846,0.0847,0.081,0.0914,0.0845,0.0857,0.0943,0.098,0.1011,0.1039,0.0691,0.069,0.069,0,0,0.0795,0.0842,0.0852,0.0887,0.0894,0.0884,0.0887,0.0877,0.0866,0.0862,0.0833,0.0803,0.0801,0.079,0.0772,0.0788,0.0788,0.0812,0.0827,0.084,0.0931,0.0972,0.1001,0.0688,0.0688,0.0688,0,0,0.078,0.0817,0.0817,0.0859,0.0867,0.0861,0.087,0.0856,0.0849,0.0837,0.0787,0.0776,0.079,0.0742,0.0727,0.0763,0.0691,0.0694,0.0817,0.0835,0.0849,0.097,0.0667,0,0,0,0,0,0.0782,0.0817,0.0817,0.0823,0.0849,0.0868,0.0868,0.0848,0.0825,0.0843,0.0811,0.0767,0.073,0.0716,0.0706,0.0758,0.0667,0.0671,0.0674,0.0835,0.0855,0.0871,0,0,0,0,0,0,0.0784,0.0794,0.0815,0.0814,0.0818,0.0867,0.0828,0.0824,0.0823,0.0819,0.0776,0.0766,0.0731,0.0716,0.0709,0.076,0.0669,0.0668,0.0671,0.0674,0.0842,0.0858,0.0872,0,0,0,0,0,0.0786,0.0794,0.0848,0.0812,0.0816,0.0797,0.0827,0.0823,0.0826,0.0775,0.0765,0.081,0.0733,0.0723,0.0712,0.0765,0.0674,0.0671,0.067,0.0673,0.0675,0.085,0,0,0,0,0,0,0.0787,0.079,0.0847,0.0846,0.0799,0.0794,0.0796,0.0823,0.0781,0.0773,0.0805,0.0802,0.0734,0.0726,0.0719,0.0772,0.0678,0.0675,0.0674,0.0672,0.0674,0.0676,0,0,0,0,0,0,0.0785,0.079,0.0847,0.0831,0.0828,0.0791,0.0793,0.0771,0.0779,0.0812,0.0809,0.0803,0.0723,0.0729,0.0723,0.0691,0.0681,0.0678,0.0676,0.0675,0.0674,0.0675,0,0,0,0,0,0,0.0786,0.079,0.0831,0.0829,0.0827,0.0816,0.0768,0.0785,0.0802,0.0814,0.0798,0.0796,0.0725,0.072,0.0726,0.0697,0.0693,0.0681,0.0679,0.0678,0.0677,0,0,0,0,0,0,0,0.0787,0.0771,0.085,0.0828,0.0825,0.0835,0.0835,0.0835,0.0801,0.08,0.0798,0.0797,0.0695,0.0692,0.0689,0.0702,0,0,0.0681,0.068,0,0,0,0,0,0,0,0,0.0768,0.0771,0.0849,0.0849,0.0849,0.0835,0.0835,0.0835,0.0801,0.08,0.0799,0.0797,0.0694,0.0692,0.069,0,0,0,0,0,0,0,0,0,0,0,0,0,0,0,0.0849,0.0849,0,0.0835,0.0835,0.0835,0.0801,0.08,0.0799,0.0798,0.0693,0.0692,0.069,0,0,0,0,0,0,0,0,0,0,0,0,0,0,0,0,0,0,0,0,0,0,0,0,0,0,0,0,0,0,0,0,0,0,0,0,0,0,0,0,0,0,0,0,0,0,0,0,0,0,0,0,0,0,0,0,0,0,0,0,0,0,0,0,0,0,0,0,0]}]],[[{"header":{"parameterUnit":"kt","parameterCategory":2,"dx":1,"dy":1,"la1":30.253999710083008,"la2":30.299108505249023,"lo1":-89.0895004272461,"lo2":-89.04439544677734,"nx":28,"ny":28,"refTime":"2022-10-10T21:00:00:Z","depth":"2","parameterNumber":2,"parameterNumberName":"U-component_of_CURRENTS"},"data":[0.3629,0.3616,0.3638,0.3693,0.3839,0.3904,0.3974,0.386,0.3726,0.3294,0.307,0.3064,0.316,0.2608,0.2498,0.2282,0.2622,0.2187,0.3312,0.3425,0.3504,0.3721,0.3469,0,0,0,0,0,0.3704,0.3736,0.377,0.3846,0.3927,0.408,0.4191,0.4152,0.4174,0.401,0.3941,0.3431,0.3247,0.329,0.3007,0.2948,0.2966,0.2866,0.2882,0.2976,0.306,0.2829,0.2138,0.2133,0.2129,0.2126,0,0,0.3808,0.3801,0.3867,0.3959,0.406,0.4171,0.4232,0.4362,0.4432,0.443,0.4472,0.4344,0.4281,0.4019,0.389,0.3829,0.417,0.4021,0.4057,0.4103,0.3922,0.3703,0.3521,0.3526,0.3531,0.3536,0.3539,0,0.3896,0.3914,0.3967,0.407,0.4164,0.4259,0.439,0.448,0.4638,0.4742,0.4798,0.4875,0.4877,0.4632,0.4626,0.4595,0.4795,0.4597,0.5369,0.4428,0.4213,0.4153,0.417,0.4166,0.4176,0.4183,0.4188,0.4191,0.3918,0.3964,0.4052,0.4099,0.4196,0.4331,0.4423,0.4591,0.4681,0.4931,0.4968,0.5184,0.5199,0.528,0.5205,0.5237,0.5432,0.4822,0.47,0.5197,0.5139,0.512,0.51,0.4293,0.428,0.4269,0.4261,0,0.3919,0.3984,0.4032,0.4186,0.4249,0.4307,0.4499,0.4613,0.48,0.4969,0.5067,0.5264,0.5358,0.5515,0.5659,0.5566,0.5607,0.5533,0.5003,0.4898,0.5159,0.5129,0.5336,0.5328,0.5321,0.5315,0.5309,0,0.3913,0.3962,0.4044,0.4127,0.4235,0.4297,0.4481,0.4552,0.4778,0.4887,0.5105,0.5213,0.541,0.5539,0.5567,0.5507,0.573,0.5384,0.5344,0.4974,0.4907,0.5487,0.5453,0.5773,0.5772,0.5772,0.5771,0,0.3869,0.3917,0.4007,0.4045,0.4164,0.4265,0.4341,0.4537,0.4631,0.4878,0.5,0.5227,0.5301,0.5459,0.5442,0.5408,0.5601,0.5561,0.5315,0.5288,0.4966,0.4897,0.577,0.577,0.577,0.5769,0.5769,0,0.3843,0.3885,0.3968,0.4029,0.4067,0.4156,0.4377,0.4435,0.4662,0.4722,0.4906,0.4996,0.5163,0.5073,0.5265,0.5179,0.5195,0.5186,0.5191,0.4919,0.4754,0.447,0.4541,0.5124,0.5119,0.5115,0.5111,0,0.3836,0.3863,0.3872,0.3963,0.4011,0.4094,0.4194,0.4297,0.4402,0.4546,0.4631,0.4751,0.4673,0.4724,0.4832,0.4848,0.4955,0.4811,0.4979,0.4983,0.4718,0.4875,0.4452,0.45,0.5058,0.5063,0.5067,0,0.3793,0.381,0.3824,0.3846,0.3929,0.3965,0.4082,0.4196,0.4303,0.4332,0.4478,0.4531,0.456,0.4593,0.4566,0.4661,0.4846,0.4608,0.4613,0.4652,0.5126,0.4829,0.4836,0.4894,0.4903,0.4909,0.5024,0,0.376,0.3767,0.38,0.3827,0.3863,0.3928,0.3967,0.4024,0.4061,0.4088,0.4213,0.4204,0.4299,0.4286,0.4245,0.4447,0.4392,0.4385,0.4354,0.449,0.4503,0.4537,0.4102,0.41,0.4098,0.4097,0,0,0.3725,0.3729,0.372,0.3731,0.377,0.3803,0.3846,0.3879,0.3881,0.3931,0.3884,0.4005,0.3998,0.4138,0.4152,0.4127,0.4173,0.4142,0.4383,0.4415,0.4444,0.4468,0.4503,0.4094,0.4093,0.4092,0.4092,0,0.3705,0.3715,0.3709,0.3724,0.3741,0.3764,0.3784,0.3791,0.3809,0.3845,0.3835,0.3889,0.3917,0.3959,0.3987,0.4087,0.411,0.4085,0.4203,0.4361,0.4395,0.4425,0.4455,0.4487,0.4087,0.4088,0.4088,0,0.3675,0.3653,0.3652,0.3643,0.367,0.3706,0.3669,0.3708,0.374,0.3691,0.375,0.3755,0.3776,0.384,0.3872,0.3841,0.4046,0.3941,0.395,0.4002,0.4166,0.4203,0.4235,0.3822,0.3822,0.3821,0,0,0.365,0.364,0.3624,0.3636,0.3657,0.3658,0.3668,0.3663,0.3674,0.3685,0.3686,0.3708,0.3752,0.3772,0.3795,0.3851,0.3898,0.3912,0.3924,0.3935,0.3992,0.4156,0.4191,0.3819,0.3819,0.3819,0,0,0.3649,0.3615,0.3603,0.3606,0.3613,0.361,0.3644,0.3633,0.3654,0.367,0.3656,0.3659,0.3729,0.3716,0.3685,0.3806,0.375,0.3756,0.3826,0.3841,0.3853,0.3917,0.3667,0,0,0,0,0,0.3607,0.3615,0.3604,0.3601,0.3594,0.3611,0.3612,0.3608,0.3616,0.3636,0.364,0.3641,0.3695,0.3666,0.3673,0.3755,0.379,0.3795,0.38,0.3902,0.3918,0.3932,0,0,0,0,0,0,0.3606,0.3604,0.3604,0.3597,0.3595,0.361,0.3587,0.3587,0.3613,0.3614,0.3637,0.364,0.3627,0.3663,0.3669,0.3749,0.3665,0.3792,0.3796,0.38,0.3908,0.3921,0.3932,0,0,0,0,0,0.3606,0.3603,0.3591,0.3597,0.3596,0.359,0.3587,0.3587,0.3619,0.3606,0.361,0.3619,0.3627,0.3634,0.3667,0.3747,0.3661,0.3663,0.3795,0.3798,0.3801,0.3914,0,0,0,0,0,0,0.3605,0.3609,0.359,0.359,0.3595,0.3591,0.359,0.3587,0.3611,0.3613,0.3584,0.3584,0.3627,0.3632,0.3637,0.3748,0.3658,0.366,0.3661,0.3797,0.38,0.3802,0,0,0,0,0,0,0.361,0.3609,0.359,0.3588,0.3587,0.3591,0.359,0.3615,0.3613,0.3588,0.3588,0.3584,0.3628,0.3631,0.3635,0.3673,0.3655,0.3657,0.3659,0.366,0.38,0.3802,0,0,0,0,0,0,0.3609,0.3608,0.3588,0.3587,0.3587,0.3584,0.3615,0.3615,0.3586,0.3589,0.3585,0.3585,0.3628,0.3631,0.3633,0.3669,0.3672,0.3655,0.3656,0.3658,0.3658,0,0,0,0,0,0,0,0.3609,0.3615,0.359,0.3587,0.3587,0.3585,0.3585,0.3585,0.3586,0.3586,0.3585,0.3585,0.3642,0.3645,0.3647,0.3667,0,0,0.3655,0.3656,0,0,0,0,0,0,0,0,0.3615,0.3615,0.359,0.359,0.3589,0.3585,0.3585,0.3585,0.3586,0.3586,0.3585,0.3585,0.3643,0.3645,0.3647,0,0,0,0,0,0,0,0,0,0,0,0,0,0,0,0.359,0.359,0,0.3585,0.3585,0.3585,0.3586,0.3586,0.3585,0.3585,0.3643,0.3645,0.3647,0,0,0,0,0,0,0,0,0,0,0,0,0,0,0,0,0,0,0,0,0,0,0,0,0,0,0,0,0,0,0,0,0,0,0,0,0,0,0,0,0,0,0,0,0,0,0,0,0,0,0,0,0,0,0,0,0,0,0,0,0,0,0,0,0,0,0,0,0]}],[{"header":{"parameterUnit":"kt","parameterCategory":2,"dx":1,"dy":1,"la1":30.253999710083008,"la2":30.299108505249023,"lo1":-89.0895004272461,"lo2":-89.04439544677734,"nx":28,"ny":28,"refTime":"2022-10-10T21:00:00:Z","depth":"2","parameterNumber":3,"parameterNumberName":"V-component_of_CURRENTS"},"data":[0.0508,0.063,0.0697,0.0987,0.1125,0.1357,0.1495,0.1821,0.2015,0.2299,0.2353,0.2319,0.1773,0.132,0.0823,0.0496,0.0438,0.0414,0.0451,0.0637,0.065,0.0318,0.0378,0,0,0,0,0,0.0455,0.0536,0.0654,0.0853,0.1022,0.1069,0.1305,0.1497,0.1863,0.2081,0.2302,0.198,0.1681,0.1242,0.0627,0.0231,0.0226,0.0108,0.0208,0.0217,0.0226,0.0256,0.0135,0.0134,0.0133,0.0132,0,0,0.0403,0.0459,0.0578,0.0707,0.0841,0.1027,0.1155,0.1361,0.1616,0.1916,0.1945,0.2069,0.1672,0.1146,0.0784,0.0365,0.0377,0.0214,0.0221,0.0229,0.0255,0.0216,0.0136,0.0136,0.0136,0.0135,0.0135,0,0.0384,0.0414,0.0501,0.064,0.0751,0.0876,0.1022,0.1112,0.1258,0.1451,0.1691,0.18,0.152,0.1304,0.0833,0.0636,0.0443,0.0338,0.0386,0.0438,0.0401,0.0365,0.0368,0.0355,0.0356,0.0357,0.0357,0.0358,0.035,0.0399,0.0521,0.0592,0.0649,0.0753,0.0849,0.0925,0.1035,0.1224,0.1336,0.1378,0.147,0.1181,0.089,0.0614,0.0571,0.0371,0.0353,0.0349,0.031,0.0314,0.0316,0.0366,0.0365,0.0364,0.0363,0,0.033,0.0388,0.0483,0.0593,0.0635,0.0701,0.0828,0.0919,0.0971,0.1143,0.1206,0.1285,0.1259,0.1128,0.0973,0.0778,0.062,0.0504,0.052,0.0483,0.0332,0.0331,0.0301,0.0298,0.0296,0.0293,0.0292,0,0.0312,0.038,0.0461,0.0517,0.0617,0.0671,0.0783,0.0827,0.0931,0.1053,0.1096,0.1201,0.1111,0.108,0.0929,0.0724,0.0794,0.0515,0.0473,0.0514,0.0507,0.0546,0.054,0.0614,0.0615,0.0616,0.0617,0,0.0264,0.0361,0.0444,0.0478,0.0585,0.0639,0.0695,0.0784,0.0843,0.0954,0.102,0.1067,0.1081,0.1006,0.0859,0.0842,0.0733,0.0699,0.0496,0.0485,0.0492,0.0481,0.0618,0.0618,0.0618,0.0618,0.0619,0,0.0241,0.0301,0.0393,0.0496,0.0524,0.0573,0.069,0.0734,0.0833,0.0844,0.0909,0.0944,0.0971,0.0876,0.0796,0.081,0.0687,0.0601,0.0595,0.0506,0.0429,0.0378,0.0413,0.047,0.047,0.047,0.047,0,0.0205,0.0287,0.0315,0.0407,0.0463,0.0501,0.0552,0.0611,0.0646,0.0722,0.0722,0.0773,0.0683,0.0705,0.0687,0.0628,0.0587,0.06,0.0502,0.0498,0.0434,0.0475,0.0515,0.0413,0.0468,0.0468,0.0468,0,0.0169,0.0245,0.0254,0.0302,0.036,0.0399,0.045,0.0522,0.0574,0.057,0.0653,0.0619,0.0622,0.0618,0.0584,0.057,0.0571,0.0511,0.051,0.0464,0.0552,0.0476,0.047,0.058,0.0582,0.0583,0.0466,0,0.0178,0.0213,0.0232,0.0288,0.0319,0.036,0.039,0.0417,0.0422,0.0444,0.048,0.0447,0.0476,0.0449,0.0416,0.0466,0.0414,0.0409,0.0383,0.0435,0.0368,0.037,0.0326,0.0324,0.0323,0.0322,0,0,0.0141,0.0183,0.0194,0.0229,0.0262,0.0272,0.0318,0.0331,0.0346,0.0372,0.0335,0.0352,0.032,0.0368,0.0374,0.0349,0.0322,0.0344,0.04,0.0409,0.0417,0.0358,0.0361,0.0319,0.0319,0.0319,0.0318,0,0.0149,0.016,0.0184,0.0209,0.0243,0.0264,0.0273,0.0298,0.0308,0.0321,0.0306,0.0309,0.0285,0.0295,0.0292,0.0328,0.0281,0.0311,0.0374,0.0388,0.0399,0.0408,0.0352,0.0356,0.0315,0.0315,0.0315,0,0.0138,0.0157,0.0166,0.02,0.0218,0.0254,0.0241,0.0266,0.0293,0.0252,0.0271,0.0253,0.0232,0.0243,0.0241,0.0224,0.0242,0.0232,0.0238,0.0255,0.0268,0.028,0.0291,0.0156,0.0156,0.0156,0,0,0.0143,0.016,0.0188,0.0202,0.0216,0.0234,0.0244,0.0255,0.026,0.0262,0.0247,0.0231,0.0227,0.022,0.0207,0.0207,0.0186,0.0216,0.0223,0.023,0.025,0.0265,0.0276,0.0155,0.0155,0.0155,0,0,0.0144,0.0174,0.0177,0.0195,0.0219,0.0241,0.0252,0.0256,0.0258,0.0254,0.0229,0.0223,0.0225,0.0199,0.0192,0.0202,0.0167,0.0168,0.023,0.0238,0.0246,0.0276,0.0162,0,0,0,0,0,0.0161,0.0171,0.0174,0.0179,0.0209,0.0239,0.0243,0.0252,0.0246,0.0259,0.0246,0.0221,0.0197,0.0191,0.0183,0.0204,0.0144,0.0146,0.0148,0.0227,0.0236,0.0245,0,0,0,0,0,0,0.0163,0.017,0.0174,0.0196,0.0202,0.0238,0.0229,0.0232,0.0245,0.0246,0.0226,0.022,0.0203,0.0192,0.0186,0.0207,0.0164,0.0145,0.0147,0.0148,0.023,0.0238,0.0245,0,0,0,0,0,0.0165,0.017,0.0216,0.0195,0.0201,0.0217,0.0229,0.0232,0.0243,0.022,0.0217,0.025,0.0204,0.0197,0.0188,0.0211,0.0168,0.0166,0.0146,0.0147,0.0149,0.0234,0,0,0,0,0,0,0.0166,0.0172,0.0217,0.0219,0.0192,0.0215,0.022,0.0231,0.0216,0.0214,0.0241,0.0241,0.0204,0.0199,0.0194,0.0215,0.0171,0.0169,0.0168,0.0147,0.0148,0.0149,0,0,0,0,0,0,0.0169,0.0173,0.0218,0.0214,0.0215,0.0214,0.0218,0.0196,0.0213,0.0236,0.0237,0.0241,0.0194,0.02,0.0196,0.0164,0.0174,0.0172,0.017,0.0169,0.0148,0.0149,0,0,0,0,0,0,0.0171,0.0175,0.0213,0.0214,0.0216,0.0238,0.0193,0.0211,0.0247,0.0235,0.0247,0.0246,0.0194,0.0191,0.0198,0.0168,0.0165,0.0173,0.0172,0.0171,0.017,0,0,0,0,0,0,0,0.0173,0.0146,0.0206,0.0215,0.0216,0.0237,0.0237,0.0238,0.0247,0.0247,0.0247,0.0247,0.0185,0.0183,0.0181,0.0171,0,0,0.0174,0.0173,0,0,0,0,0,0,0,0,0.0144,0.0145,0.0206,0.0206,0.0207,0.0237,0.0237,0.0237,0.0247,0.0247,0.0247,0.0247,0.0185,0.0183,0.0181,0,0,0,0,0,0,0,0,0,0,0,0,0,0,0,0.0206,0.0206,0,0.0237,0.0237,0.0237,0.0247,0.0247,0.0247,0.0247,0.0184,0.0183,0.0181,0,0,0,0,0,0,0,0,0,0,0,0,0,0,0,0,0,0,0,0,0,0,0,0,0,0,0,0,0,0,0,0,0,0,0,0,0,0,0,0,0,0,0,0,0,0,0,0,0,0,0,0,0,0,0,0,0,0,0,0,0,0,0,0,0,0,0,0,0]}]],[[{"header":{"parameterUnit":"kt","parameterCategory":2,"dx":1,"dy":1,"la1":30.253999710083008,"la2":30.299108505249023,"lo1":-89.0895004272461,"lo2":-89.04439544677734,"nx":28,"ny":28,"refTime":"2022-10-10T21:00:00:Z","depth":"4","parameterNumber":2,"parameterNumberName":"U-component_of_CURRENTS"},"data":[0.0866,0.0841,0.0856,0.078,0.0777,0.0832,0.0933,0.1126,0.1184,0.151,0.1602,0.1868,0.2022,0.2186,0.2201,0.2232,0.2236,0.2536,0.2529,0.2659,0.2683,0.2704,0.2601,0,0,0,0,0,0.0944,0.0907,0.0921,0.0953,0.101,0.1073,0.1235,0.1355,0.1646,0.171,0.1886,0.2032,0.2173,0.2305,0.2247,0.2448,0.256,0.2362,0.2456,0.2674,0.2701,0.2591,0,0,0,0,0,0,0.1074,0.1052,0.1098,0.1145,0.1219,0.1244,0.1345,0.149,0.1613,0.2006,0.2053,0.2344,0.2594,0.2604,0.2642,0.2645,0.2603,0.251,0.2544,0.257,0.2454,0.2303,0.2149,0,0,0,0,0,0.1191,0.1243,0.1272,0.1329,0.1416,0.1477,0.1636,0.1664,0.1962,0.2184,0.2363,0.2473,0.2621,0.2743,0.278,0.2797,0.2996,0.2908,0.2921,0.2873,0.2788,0.2758,0.2762,0.28,0.2804,0.2806,0.2807,0,0.1354,0.1347,0.1474,0.1503,0.1586,0.171,0.1791,0.2034,0.2114,0.2436,0.2477,0.2711,0.2855,0.2875,0.3023,0.3055,0.3011,0.2977,0.2926,0.283,0.2794,0.2791,0.2786,0.2828,0.2827,0.2825,0.2823,0,0.144,0.152,0.1551,0.1708,0.1766,0.1831,0.2029,0.2104,0.2332,0.2466,0.2549,0.2802,0.2963,0.3089,0.323,0.3148,0.316,0.3091,0.3258,0.3231,0.2832,0.2818,0.2863,0.2855,0.2849,0.2843,0.2839,0,0.1586,0.1617,0.1733,0.1748,0.183,0.1963,0.2079,0.2219,0.2397,0.2497,0.2703,0.2797,0.3017,0.3115,0.3153,0.3133,0.329,0.3036,0.3003,0.3185,0.3171,0.3166,0.3148,0.3317,0.3316,0.3316,0.3316,0,0.165,0.1737,0.1761,0.1796,0.1916,0.2001,0.2105,0.2265,0.234,0.2561,0.2644,0.2839,0.2957,0.3046,0.3122,0.3108,0.3257,0.323,0.3012,0.2993,0.3157,0.314,0.3315,0.3315,0.3315,0.3315,0.3315,0,0.1747,0.1771,0.1801,0.1906,0.1932,0.1994,0.214,0.2222,0.2392,0.2482,0.2635,0.2717,0.2885,0.2864,0.3045,0.3011,0.3024,0.3048,0.305,0.2813,0.2719,0.2874,0.3007,0.3005,0.3003,0.3001,0.2999,0,0.1798,0.1806,0.185,0.1902,0.1912,0.2012,0.2092,0.2187,0.2278,0.2388,0.2511,0.2634,0.2663,0.274,0.2816,0.2893,0.2936,0.287,0.2927,0.2927,0.2708,0.2782,0.2929,0.297,0.2974,0.2977,0.2979,0,0.1801,0.1843,0.1855,0.1879,0.1951,0.1966,0.2056,0.2142,0.2222,0.2314,0.2426,0.2558,0.2622,0.2664,0.2707,0.277,0.2883,0.2758,0.2759,0.2769,0.3013,0.2774,0.2768,0.2908,0.2912,0.2916,0.2959,0,0.1836,0.1858,0.1867,0.1885,0.1921,0.196,0.2008,0.2071,0.2139,0.219,0.2338,0.2393,0.2496,0.2528,0.2538,0.2677,0.2649,0.2639,0.2597,0.2682,0.2681,0.2697,0.2483,0.2482,0.248,0.2479,0,0,0.1856,0.1841,0.185,0.186,0.1897,0.194,0.1966,0.201,0.207,0.2126,0.2132,0.2297,0.2331,0.2451,0.2486,0.2484,0.2503,0.2491,0.2625,0.2641,0.2656,0.2661,0.2678,0.2477,0.2476,0.2476,0.2475,0,0.1832,0.185,0.184,0.1866,0.1903,0.192,0.1944,0.1983,0.2031,0.2094,0.2136,0.2222,0.2285,0.2336,0.237,0.2454,0.2465,0.2478,0.2538,0.261,0.2628,0.2644,0.2653,0.2669,0.2472,0.2472,0.2472,0,0.1833,0.1828,0.1828,0.1837,0.1864,0.1884,0.1904,0.1949,0.1989,0.2004,0.2083,0.2134,0.2175,0.2248,0.2288,0.2257,0.2406,0.2354,0.2361,0.2379,0.2451,0.2471,0.2489,0.226,0.226,0.2259,0,0,0.1821,0.1815,0.1823,0.1832,0.1846,0.1883,0.1909,0.1937,0.1972,0.2001,0.2041,0.209,0.2151,0.218,0.2221,0.2274,0.2284,0.2331,0.234,0.2349,0.237,0.2444,0.2464,0.2258,0.2258,0.2257,0,0,0.1817,0.1806,0.1818,0.1819,0.1845,0.1862,0.1897,0.1928,0.1982,0.2006,0.2033,0.2045,0.2135,0.213,0.2101,0.2228,0.2183,0.219,0.2239,0.2252,0.2261,0.228,0.2103,0,0,0,0,0,0.1797,0.1798,0.1808,0.1811,0.1829,0.1849,0.1857,0.1901,0.1938,0.1963,0.2005,0.202,0.2118,0.2092,0.2103,0.2177,0.2233,0.2238,0.2242,0.232,0.2333,0.2344,0,0,0,0,0,0,0.1798,0.1796,0.1809,0.1818,0.1824,0.1848,0.1864,0.1876,0.1936,0.1944,0.2009,0.2019,0.2026,0.2089,0.2098,0.2169,0.21,0.2235,0.2239,0.2242,0.2324,0.2335,0.2344,0,0,0,0,0,0.1798,0.1797,0.1811,0.182,0.1825,0.1879,0.1865,0.1876,0.1936,0.1958,0.1972,0.1975,0.2024,0.2036,0.2094,0.2165,0.2094,0.2097,0.2237,0.224,0.2243,0.2329,0,0,0,0,0,0,0.1799,0.1813,0.1814,0.1819,0.1831,0.1882,0.1887,0.1875,0.1949,0.1961,0.1919,0.1924,0.2022,0.2032,0.2041,0.2165,0.2089,0.2092,0.2094,0.224,0.2242,0.2244,0,0,0,0,0,0,0.1815,0.1816,0.1816,0.1828,0.1834,0.1883,0.1888,0.1917,0.195,0.1906,0.1912,0.1921,0.2018,0.2029,0.2036,0.2078,0.2085,0.2088,0.2091,0.2092,0.2241,0.2243,0,0,0,0,0,0,0.1817,0.1819,0.1827,0.1832,0.1837,0.1895,0.1912,0.1935,0.1941,0.1903,0.1945,0.1947,0.2014,0.2022,0.2032,0.2071,0.2076,0.2085,0.2087,0.2089,0.209,0,0,0,0,0,0,0,0.1819,0.1788,0.1785,0.1835,0.184,0.1864,0.1865,0.1866,0.1942,0.1943,0.1945,0.1946,0.2067,0.2071,0.2074,0.2065,0,0,0.2085,0.2087,0,0,0,0,0,0,0,0,0.1789,0.1788,0.1785,0.1786,0.1787,0.1864,0.1865,0.1866,0.1942,0.1943,0.1945,0.1946,0.2068,0.2071,0.2074,0,0,0,0,0,0,0,0,0,0,0,0,0,0,0,0.1786,0.1786,0,0.1864,0.1865,0.1866,0.1942,0.1943,0.1944,0.1945,0.2069,0.2071,0.2074,0,0,0,0,0,0,0,0,0,0,0,0,0,0,0,0,0,0,0,0,0,0,0,0,0,0,0,0,0,0,0,0,0,0,0,0,0,0,0,0,0,0,0,0,0,0,0,0,0,0,0,0,0,0,0,0,0,0,0,0,0,0,0,0,0,0,0,0,0]}],[{"header":{"parameterUnit":"kt","parameterCategory":2,"dx":1,"dy":1,"la1":30.253999710083008,"la2":30.299108505249023,"lo1":-89.0895004272461,"lo2":-89.04439544677734,"nx":28,"ny":28,"refTime":"2022-10-10T21:00:00:Z","depth":"4","parameterNumber":3,"parameterNumberName":"V-component_of_CURRENTS"},"data":[0.0539,0.0653,0.071,0.0895,0.0998,0.1161,0.1247,0.1274,0.1269,0.1258,0.1091,0.1012,0.0694,0.0878,0.0381,0.0313,0.017,-0.012,-0.0125,-0.0337,-0.0337,-0.0338,-0.0244,0,0,0,0,0,0.0484,0.0576,0.0696,0.0839,0.097,0.1053,0.1185,0.1223,0.1258,0.1267,0.1224,0.1076,0.0754,0.0601,0.0389,0.0291,-0.0029,0.0032,-0.0143,-0.0337,-0.0337,-0.0246,0,0,0,0,0,0,0.0434,0.0501,0.0612,0.0732,0.0871,0.1009,0.1061,0.1144,0.1198,0.118,0.1182,0.0975,0.0857,0.0524,0.0312,0.0093,0.0023,-0.0066,-0.0081,-0.0084,0.0028,0.0119,0.0105,0,0,0,0,0,0.0386,0.0429,0.0505,0.0646,0.0752,0.0879,0.0991,0.104,0.1082,0.1068,0.1045,0.0875,0.0725,0.0459,0.0221,-0.0,-0.0214,-0.0274,-0.0276,-0.0282,-0.0242,-0.0241,-0.023,-0.0339,-0.0339,-0.0339,-0.0339,0,0.0338,0.0383,0.0497,0.0567,0.061,0.0706,0.0786,0.0812,0.0871,0.0872,0.0908,0.0789,0.0691,0.0414,0.0186,-0.0123,-0.0165,-0.0273,-0.0279,-0.0242,-0.0243,-0.0231,-0.022,-0.034,-0.034,-0.034,-0.034,0,0.0319,0.0353,0.0434,0.0502,0.0533,0.0589,0.0692,0.0738,0.071,0.0764,0.0757,0.064,0.0514,0.0321,0.0108,-0.0012,-0.0178,-0.0235,-0.0167,-0.0171,-0.0227,-0.0215,-0.034,-0.034,-0.034,-0.034,-0.034,0,0.0295,0.0341,0.04,0.0437,0.0508,0.0518,0.058,0.0567,0.0568,0.061,0.0483,0.0497,0.0319,0.0223,0.0078,-0.0055,-0.008,-0.0169,-0.0183,-0.0136,-0.0126,-0.017,-0.0162,-0.0229,-0.0228,-0.0227,-0.0227,0,0.0257,0.0324,0.0377,0.0397,0.0447,0.0467,0.0492,0.0465,0.0495,0.0426,0.0433,0.0326,0.033,0.0185,0.0085,0.0086,-0.0069,-0.0079,-0.0148,-0.0146,-0.0162,-0.0155,-0.0225,-0.0225,-0.0225,-0.0225,-0.0224,0,0.0234,0.0277,0.0336,0.0393,0.0404,0.0429,0.0438,0.0453,0.0404,0.0385,0.0339,0.0304,0.025,0.0233,0.0102,0.0151,0.0061,0.0008,0.0002,0.0005,0.0021,-0.0026,-0.0055,-0.0053,-0.0051,-0.0049,-0.0048,0,0.0195,0.0261,0.0274,0.033,0.0363,0.0358,0.0368,0.0359,0.0342,0.0326,0.0284,0.028,0.0257,0.0266,0.0207,0.0161,0.0091,0.0159,0.0012,0.0007,0.0038,0.0014,0.0106,-0.0024,-0.0027,-0.0029,-0.0031,0,0.0165,0.0223,0.023,0.0263,0.0282,0.0303,0.0307,0.0306,0.0307,0.0296,0.0286,0.0272,0.0249,0.0241,0.0234,0.0188,0.0125,0.0171,0.0167,0.0117,0.0001,0.0039,0.0028,0.0117,0.0115,0.0113,-0.0014,0,0.0165,0.0193,0.0208,0.0244,0.0254,0.0278,0.0281,0.0285,0.0285,0.0275,0.0263,0.0255,0.0238,0.0241,0.0238,0.02,0.0186,0.0183,0.0159,0.0158,0.0105,0.0092,0.0233,0.0233,0.0232,0.0232,0,0,0.0127,0.0165,0.0173,0.0202,0.0215,0.0214,0.0238,0.0242,0.0254,0.0245,0.0252,0.0234,0.0224,0.0213,0.0223,0.0224,0.0187,0.0214,0.0172,0.0166,0.016,0.0109,0.0098,0.023,0.023,0.023,0.023,0,0.0134,0.0141,0.0166,0.0181,0.0203,0.0209,0.0214,0.023,0.0233,0.0245,0.0234,0.0223,0.0224,0.021,0.0205,0.0219,0.0173,0.0225,0.0225,0.0169,0.0164,0.0159,0.0109,0.0099,0.0228,0.0228,0.0228,0,0.0119,0.0138,0.0147,0.0171,0.0182,0.02,0.0195,0.0212,0.0224,0.0208,0.0218,0.0209,0.0196,0.02,0.0197,0.019,0.0153,0.0188,0.0191,0.0167,0.0106,0.0102,0.0097,0.015,0.015,0.015,0,0,0.0123,0.0143,0.0158,0.0172,0.0178,0.019,0.0197,0.0205,0.0212,0.0215,0.0207,0.0199,0.0194,0.019,0.0181,0.0181,0.0136,0.018,0.0184,0.0187,0.0165,0.0106,0.0102,0.015,0.015,0.015,0,0,0.0123,0.0148,0.015,0.0165,0.0179,0.0194,0.0203,0.0206,0.0212,0.0212,0.0198,0.0195,0.0194,0.018,0.0178,0.0175,0.0158,0.0158,0.019,0.0194,0.0197,0.0174,0.0157,0,0,0,0,0,0.0135,0.0145,0.0147,0.0151,0.0174,0.0193,0.0196,0.0204,0.0202,0.0211,0.0208,0.019,0.0179,0.0177,0.0173,0.0178,0.0145,0.0146,0.0147,0.0187,0.0191,0.0195,0,0,0,0,0,0,0.0137,0.0142,0.0147,0.0162,0.0168,0.0193,0.019,0.0192,0.0201,0.0202,0.0193,0.019,0.018,0.0178,0.0174,0.0179,0.0158,0.0145,0.0146,0.0147,0.0188,0.0192,0.0196,0,0,0,0,0,0.0138,0.0142,0.0178,0.0162,0.0167,0.0179,0.0189,0.0191,0.0201,0.0188,0.0186,0.0206,0.0181,0.0177,0.0176,0.0181,0.016,0.0159,0.0146,0.0146,0.0147,0.019,0,0,0,0,0,0,0.0139,0.0145,0.0179,0.0181,0.0159,0.0178,0.0181,0.0191,0.0186,0.0185,0.0199,0.0199,0.0181,0.0178,0.0175,0.0183,0.0162,0.0161,0.016,0.0146,0.0147,0.0147,0,0,0,0,0,0,0.0143,0.0147,0.018,0.0176,0.0177,0.0177,0.018,0.0169,0.0184,0.0197,0.0197,0.0199,0.0172,0.0179,0.0177,0.016,0.0163,0.0162,0.0161,0.0161,0.0147,0.0147,0,0,0,0,0,0,0.0145,0.0148,0.0176,0.0177,0.0178,0.0196,0.0165,0.0182,0.0205,0.0196,0.0205,0.0205,0.0172,0.017,0.0178,0.0162,0.0161,0.0163,0.0162,0.0162,0.0162,0,0,0,0,0,0,0,0.0146,0.0124,0.0169,0.0177,0.0178,0.0195,0.0195,0.0196,0.0205,0.0205,0.0205,0.0205,0.0169,0.0168,0.0167,0.0164,0,0,0.0163,0.0163,0,0,0,0,0,0,0,0,0.0123,0.0124,0.0169,0.017,0.017,0.0195,0.0195,0.0195,0.0205,0.0205,0.0205,0.0205,0.0169,0.0168,0.0167,0,0,0,0,0,0,0,0,0,0,0,0,0,0,0,0.0169,0.017,0,0.0195,0.0195,0.0195,0.0205,0.0205,0.0205,0.0205,0.0169,0.0168,0.0167,0,0,0,0,0,0,0,0,0,0,0,0,0,0,0,0,0,0,0,0,0,0,0,0,0,0,0,0,0,0,0,0,0,0,0,0,0,0,0,0,0,0,0,0,0,0,0,0,0,0,0,0,0,0,0,0,0,0,0,0,0,0,0,0,0,0,0,0,0]}]]]